{"data":{"norad_id":67564,"intl_designator":"2026-016D","name":"STARLINK-36593","alt_names":[],"object_type":"PAYLOAD","status":"ACTIVE","operator":null,"country":"US","launch_date":"2026-01-25","launch_site_code":"AFWTR","launch_vehicle":null,"mission":null,"orbit_class":"UNKNOWN","rcs_meters":null,"size_class":null,"mass_kg":null,"dimensions":null,"purposes":["comms"],"wikipedia_slug":null,"has_3d_model":false,"image_url":null,"decayed_at":null,"tle_current":{"epoch":"2026-05-25T03:34:35.410080Z","epoch_age_seconds":62498,"freshness":"FRESH","line1":"1 67564U 26016D   26145.14902095  .00013376  00000+0  41582-3 0  9993","line2":"2 67564  97.2835 205.5057 0001253  94.9076 265.2310 15.33451776 18587","mean_motion":15.33451776,"eccentricity":0.0001253,"inclination_deg":97.2835,"raan_deg":205.5057,"arg_perigee_deg":94.9076,"mean_anomaly_deg":265.231,"bstar":0.00041582,"rev_number":1858,"period_min":93.905789705121,"perigee_km":464.66550334394,"apogee_km":466.38052454344,"semimajor_km":6843.6600139437,"source":"CELESTRAK","updated_at":"2026-05-25T13:38:21.613088Z"}}}